Regional Weather Roundup
Issued by NWS

Home | Current Version | Previous Version | Graphics & Text | Print | Product List | Glossary Off
Versions: 1 2 3 4 5 6 7 8 9 10 11 12 13 14 15 16 17 18 19 20 21 22 23 24 25 26 27 28 29 30 31 32 33 34 35 36 37 38 39 40 41 42 43 44 45 46 47 48 49 50

166
ASUS43 KFSD 061210
RWRSD

WEATHER ROUNDUP FOR SOUTH DAKOTA
NATIONAL WEATHER SERVICE SIOUX FALLS SD
600 AM CST SAT FEB 06 2016

NOTE: "FAIR" INDICATES FEW OR NO CLOUDS BELOW 12,000 FEET WITH NO
SIGNIFICANT WEATHER AND/OR OBSTRUCTIONS TO VISIBILITY.


SDZ001>005-009-010-012>017-061300-
NORTHWEST AND NORTH CENTRAL SOUTH DAKOTA

CITY           SKY/WX    TMP DP  RH WIND       PRES   REMARKS
BUFFALO          N/A     32  19  58 W14       29.88F WCI  22
FAITH            N/A     30  19  63 SW14      29.96F WCI  19
MOBRIDGE       CLOUDY    28  22  78 SE8       29.93F WCI  20
$$

SDZ012>016-024>037-041>051-057-063-072>074-061300-
SOUTHWEST AND SOUTH CENTRAL SOUTH DAKOTA

CITY           SKY/WX    TMP DP  RH WIND       PRES   REMARKS
RAPID CTY ARPT CLOUDY    25  16  68 CALM      30.02F
PIERRE         CLEAR     29  21  72 SW15      30.02F WCI  18
CUSTER         CLOUDY    25   9  50 VRB5      30.03F WCI  19
ELLSWORTH AFB  CLOUDY    32  19  59 W9        30.01F WCI  24
PHILIP         CLOUDY    28  19  69 W13       30.05F WCI  17
PINE RIDGE     CLOUDY    27  15  61 W9        30.11F WCI  18
SPEARFISH      FAIR      39  18  41 W12       30.01F
WINNER         FAIR      27  16  63 SW13      30.08F WCI  16
$$

SDZ004>011-016>023-039-040-061300-
NORTHEAST SOUTH DAKOTA

CITY           SKY/WX    TMP DP  RH WIND       PRES   REMARKS
ABERDEEN       CLOUDY    23  19  85 S10       29.99F WCI  12
WATERTOWN      CLOUDY    20  16  84 S10       30.03F WCI   9
BROOKINGS      CLOUDY    19  17  92 S9        30.08F WCI   8
SISSETON         N/A     29  22  75 SW15      29.98F WCI  18
$$

SDZ017-020-022-023-036>040-048>070-061300-
SOUTHEAST SOUTH DAKOTA

CITY           SKY/WX    TMP DP  RH WIND       PRES   REMARKS
SIOUX FALLS    CLOUDY    20  17  88 SW5       30.13F WCI  13
HURON          CLEAR     23  19  85 S10       30.06F WCI  12
CHAMBERLAIN    CLEAR     24  20  83 SW3       30.08F
MITCHELL       CLEAR     26  22  84 SW12      30.11F WCI  16
YANKTON        CLOUDY    21  18  86 S5        30.16S WCI  15
$$

ABBREVIATIONS USED IN REMARKS
   TC - TEMPERATURE IN CELSIUS
  WCI - WIND CHILL INDEX
   HX - HEAT INDEX
  VSB - VISIBILITY





USA.gov is the U.S. government's official web portal to all federal, state and local government web resources and services.